Location: C.E.K. Mees Observatory
(42.7003°N, 77.4088°W)
Time: 15:57:19
(UTC-04:00)

Vanguard 3 - Pass Details

Date: 26 June 2018
Orbit: 508 x 3264 km, 33.3° (Epoch: 16 July)

Event Time Altitude Azimuth Distance (km) Brightness Sun altitude
Rises 01:49:55 0° 208° (SSW) 2,611 - -23.4°
Reaches altitude 10° 01:53:05 10° 176° (S) 1,858 - -23.3°
Maximum altitude 01:54:52 13° 150° (SSE) 1,816 - -23.2°
Drops below altitude 10° 01:56:53 10° 124° (SE) 2,144 - -23.2°
Exits shadow 01:57:56 - 115° (ESE) 2,427 9.5 -23.1°
Sets 02:01:14 0° 97° (E) 3,526 10.5 -23.0°
